Weather History for KDBQ - August, 2013

Change the Weather History Date:

Friday, August 9, 2013

  Actual Average Record
Temperature  
Mean Temperature 69 °F 71 °F  
Max Temperature 78 °F 81 °F 99 °F (1936)
Min Temperature 59 °F 61 °F 46 °F (1927)
Degree Days  
Heating Degree Days 0 0  
Month to date heating degree days 1 0  
Since 1 June heating degree days 62 48  
Since 1 July heating degree days 23 8  
Cooling Degree Days 4 6  
Month to date cooling degree days 35 59  
Year to date cooling degree days 387 459  
Since 1 June cooling degree days 342 422  
Growing Degree Days 18 (Base 50)    
Moisture  
Dew Point 61 °F    
Average Humidity 79    
Maximum Humidity 100    
Minimum Humidity 58    
Precipitation  
Precipitation 0.00 in 0.14 in 2.36 in (2009)
Month to date precipitation 0.47 1.26  
Year to date precipitation 28.18 22.84  
Snow  
Snow 0.00 in 0.00 in - ()
Month to date snowfall 0.0 0.0  
Since 1 June snowfall 0.0 0.0  
Since 1 July snowfall 0.0 0.0  
Snow Depth 0.00 in    
Sea Level Pressure  
Sea Level Pressure 30.03 in    
Wind  
Wind Speed 5 mph (NW)    
Max Wind Speed 13 mph    
Max Gust Speed 17 mph    
Visibility 10 miles    
Events      
T = Trace of Precipitation, MM = Missing Value Source: NWS Daily Summary

Daily Weather History Graph

Daily Weather History Graph

Search for Another Location

Airport or City:

Trip Planner

Search our weather history database for the weather conditions in past years. The results will help you decide how hot, cold, wet, or windy it might be!

Date:

Astronomy

Aug. 09, 2013 Rise Set
Actual Time 6:03 AM CDT 8:11 PM CDT
Civil Twilight 5:32 AM CDT 8:42 PM CDT
Nautical Twilight 4:54 AM CDT 9:20 PM CDT
Astronomical Twilight 4:13 AM CDT 10:02 PM CDT
Moon 8:54 AM CDT (8/9) 9:16 PM CDT (8/9)
Length of Visible Light 15h 09m
Length of Day
14h 08m
Waxing Crescent, 8% of the Moon is Illuminated
Aug 9
Waxing Crescent
Aug 14
First Quarter
Aug 20
Full
Aug 28
Last Quarter
Sep 5
New

Hourly Weather History & Observations

Time (CDT) Temp. Dew Point Humidity Pressure Visibility Wind Dir Wind Speed Gust Speed Precip Events Conditions
12:53 AM 61.0 °F 60.1 °F 97% 30.01 in 10.0 mi Calm Calm - N/A   Clear
1:53 AM 60.1 °F 59.0 °F 96% 30.00 in 10.0 mi Calm Calm - N/A   Clear
2:53 AM 60.1 °F 59.0 °F 96% 30.00 in 10.0 mi Calm Calm - N/A   Clear
3:53 AM 61.0 °F 60.1 °F 97% 30.00 in 9.0 mi South 4.6 mph - N/A   Overcast
4:53 AM 61.0 °F 59.0 °F 93% 29.99 in 10.0 mi Calm Calm - N/A   Mostly Cloudy
5:53 AM 60.1 °F 59.0 °F 96% 30.01 in 8.0 mi Calm Calm - N/A   Clear
6:53 AM 62.1 °F 61.0 °F 96% 30.03 in 6.0 mi Calm Calm - N/A   Overcast
7:53 AM 64.0 °F 63.0 °F 96% 30.02 in 8.0 mi SSW 3.5 mph - N/A   Overcast
8:53 AM 69.1 °F 64.0 °F 84% 30.03 in 10.0 mi West 4.6 mph - N/A   Overcast
9:53 AM 73.0 °F 64.0 °F 73% 30.02 in 10.0 mi NW 6.9 mph - N/A   Clear
10:53 AM 73.9 °F 63.0 °F 68% 30.03 in 10.0 mi North 6.9 mph - N/A   Scattered Clouds
11:53 AM 75.0 °F 64.0 °F 69% 30.03 in 10.0 mi WNW 6.9 mph - N/A   Mostly Cloudy
12:53 PM 75.0 °F 64.9 °F 71% 30.03 in 10.0 mi NW 5.8 mph - N/A   Mostly Cloudy
1:53 PM 77.0 °F 66.0 °F 69% 30.03 in 10.0 mi North 9.2 mph - N/A   Scattered Clouds
2:53 PM 75.9 °F 64.9 °F 69% 30.03 in 10.0 mi NNW 10.4 mph - N/A   Partly Cloudy
3:53 PM 78.1 °F 62.1 °F 58% 30.02 in 10.0 mi NW 5.8 mph - N/A   Partly Cloudy
4:53 PM 75.9 °F 61.0 °F 60% 30.03 in 10.0 mi NW 8.1 mph - N/A   Partly Cloudy
5:53 PM 75.9 °F 61.0 °F 60% 30.03 in 10.0 mi NW 6.9 mph - N/A   Clear
6:53 PM 72.0 °F 57.9 °F 61% 30.03 in 10.0 mi NNW 9.2 mph - N/A   Clear
7:53 PM 68.0 °F 57.0 °F 68% 30.04 in 10.0 mi NNW 5.8 mph - N/A   Clear
8:53 PM 66.9 °F 57.0 °F 70% 30.05 in 10.0 mi NW 4.6 mph - N/A   Clear
9:53 PM 66.0 °F 57.9 °F 75% 30.07 in 10.0 mi NW 8.1 mph - N/A   Clear
10:53 PM 63.0 °F 59.0 °F 87% 30.09 in 10.0 mi NW 4.6 mph - N/A   Clear
11:53 PM 62.1 °F 57.9 °F 86% 30.10 in 10.0 mi NW 5.8 mph - N/A   Clear